OBJECT B, 58821

Orbit data source: Space-Track

You're viewing an Uncataloged Satellite

Recently launched and/or uncataloged satellites may have evolving metadata. Metadata may include but not limited to: Owner, Maufacturer, Bus, Motor, and Mission.

OBJECT B, 58821 is a Chinese satellite in SSO that was launched on Tue, 23 Jan 2024 UTC via a LIJIAN-1 launch vehicle from the Jiuquan Satellite Launch Center, China (JSC). Unknown objects in Earth's orbit typically refer to objects detected orbiting the Earth but have not yet been identified or cataloged. These objects could be anything from previously untracked satellites, spent rocket stages, debris from satellite collisions, or even natural meteoroids temporarily captured by Earth's gravity.

Loading next visibility...
Identifier
58821, 2024-016B
Orbit
SSO
Country
Flag of CNCN / PRC
Related business
None
Manufacturer
Unknown
Mission
Operational Commercial Imaging
Bus & Motor
Unknown
Mass
Unknown
Launch date (UTC)
2024-01-23 (2 years ago)
Launch vehicle
LIJIAN-1
Launch site
Jiuquan Satellite Launch Center, China (JSC)
Object type
Unknown
Shape & HBR
Box + Cyl + 2 Pan, 2.5 m
Radar Cross Section
2.585 m², Large (>1 m²)

Expand to show TLE details & history
Last TLE update: 22 hours ago

TLE from 22 hours ago
0 OBJECT B
1 58821U 24016B   26172.50621052  .00119701  00000-0  81916-3 0  9993
2 58821  97.4459 269.8046 0000548 346.2801  13.8448 15.74412160134850
Epoch: 2026-06-21T12:08Z
TLE epoch observation values (Epoch: 2026-06-21T12:08:56.588Z)
Latitude
-0.00009°
Longitude
177.86332°
Altitude
349.109 km
Speed
7.7 km/s
True Right ascension
17h 59m 13s
True Declination
0° 00' 00"
Sunlit
Object was in full shadow at epoch
Visualization orbit readout
Latitude
Unknown
Longitude
Unknown
Altitude
Unknown
Speed
Unknown
Apparent Right ascension
Unknown
Apparent Declination
Unknown
Sunlit
N/A
Visualization observer readout
Local Sidereal Time
21:32:49
Azimuth
Unknown
Elevation
Unknown
Doppler factor
Unknown
Orbital elements
Apogee altitude
343.568 km
Perigee altitude
342.832 km
Semi-major axis
6,721.337 km
Eccentricity
0.00005
Inclination
97.4459°
RAAN
269.8046°
Arg. of periapsis
346.2801°
True anomaly
13.8463°
Mean anomaly
13.8448°
Eccentric anomaly
13.84555°
Mean motion
3.93876 °/min
Orbital period
91.4 mins
BSTAR
0.00081916
Loading maneuver chart data...
Computing Atmospheric mass density...
Loading historical data...
Loading historical data...
Loading historical data...
Loading historical data...
Loading historical data...
Loading historical data...
Loading historical data...
Other satellites on launch #16 in the year 2024 (2024-01-23 UTC)

Documentation

Showing up to 5 results
|